Cozieni, Romania

7:51 AM EEST on April 21, 2018 (GMT +0300)
Cozieni

Weather History for 15420 - April, 2011

Change the Weather History Date:

Monday, April 18, 2011

  Actual Average Record
Temperature  
Mean Temperature 46 °F -  
Max Temperature 64 °F 70 °F - ()
Min Temperature 29 °F 47 °F - ()
Degree Days  
Heating Degree Days 18    
Moisture  
Dew Point 36 °F    
Average Humidity 62    
Maximum Humidity 100    
Minimum Humidity 19    
Precipitation  
Precipitation 0.00 in 0.08 in - ()
Sea Level Pressure  
Sea Level Pressure 30.14 in    
Wind  
Wind Speed 4 mph ()    
Max Wind Speed 17 mph    
Max Gust Speed 26 mph    
Visibility 6.0 miles    
Events      
T = Trace of Precipitation, MM = Missing Value Source: Averaged Metar Reports

Daily Weather History Graph

Daily Weather History Graph

Search for Another Location

Airport or City:

Astronomy

Apr. 18, 2011 Rise Set
Actual Time 6:27 AM EEST 8:03 PM EEST
Civil Twilight 5:56 AM EEST 8:33 PM EEST
Nautical Twilight 5:19 AM EEST 9:11 PM EEST
Astronomical Twilight 4:40 AM EEST 9:51 PM EEST
Moon 8:57 PM EEST (4/18) 6:08 AM EEST (4/18)
Length of Visible Light 14h 37m
Length of Day
13h 35m
Full, 100% of the Moon is Illuminated
Apr 18
Full
Apr 25
Last Quarter
May 3
New
May 10
First Quarter
May 17
Full

Hourly Weather History & Observations

Time (EEST) Temp. Dew Point Humidity Pressure Visibility Wind Dir Wind Speed Gust Speed Precip Events Conditions
12:00 AM 46 °F 35 °F 55% 30.25 in 6 mi SE 4.5 mph - -  
12:00 AM 50.0 °F 35.6 °F 58% 30.21 in - ESE 5.8 mph - N/A   Clear
12:30 AM 46.4 °F 35.6 °F 66% 30.21 in - Variable 2.3 mph - N/A   Clear
1:00 AM 38 °F 31 °F 67% 30.26 in 6 mi ENE 2.2 mph - -  
1:00 AM 42.8 °F 35.6 °F 76% 30.21 in - East 2.3 mph - N/A   Clear
1:30 AM 44.6 °F 35.6 °F 71% 30.21 in - Variable 1.2 mph - N/A   Clear
2:00 AM 34 °F 33 °F 92% 30.26 in 6 mi NNW 2.2 mph - -  
2:00 AM 41.0 °F 37.4 °F 87% 30.21 in - Variable 1.2 mph - N/A   Clear
2:30 AM 41.0 °F 37.4 °F 87% 30.21 in - Calm Calm - N/A   Clear
3:00 AM 33 °F 33 °F 98% 30.24 in 6 mi North 2.2 mph - -  
3:00 AM 39.2 °F 35.6 °F 87% 30.18 in - Calm Calm - N/A   Clear
3:30 AM 39.2 °F 37.4 °F 93% 30.18 in - Calm Calm - N/A   Clear
4:00 AM 31 °F 31 °F 99% 30.23 in 6 mi Calm Calm - -  
4:00 AM 39.2 °F 37.4 °F 93% 30.18 in - Calm Calm - N/A   Clear
4:30 AM 37.4 °F 35.6 °F 93% 30.18 in - Calm Calm - N/A   Clear
5:00 AM 30 °F 30 °F 100% 30.22 in 6 mi Calm Calm - -   Clear
5:00 AM 37.4 °F 35.6 °F 93% 30.18 in - Calm Calm - N/A   Clear
5:30 AM 37.4 °F 37.4 °F 100% 30.18 in - NW 2.3 mph - N/A   Clear
6:00 AM 30 °F 30 °F 100% 30.22 in 6 mi Calm Calm - -   Clear
6:00 AM 37.4 °F 37.4 °F 100% 30.18 in - Calm Calm - N/A   Clear
6:30 AM 37.4 °F 37.4 °F 100% 30.18 in - NW 1.2 mph - N/A   Clear
7:00 AM 30 °F 30 °F 99% 30.22 in 6 mi North 2.2 mph - -   Partly Cloudy
7:00 AM 37.4 °F 35.6 °F 93% 30.18 in - NNW 1.2 mph - N/A   Clear
7:30 AM 39.2 °F 37.4 °F 93% 30.18 in - NNW 2.3 mph - N/A   Clear
8:00 AM 34 °F 34 °F 99% 30.21 in 6 mi NNW 2.2 mph - -   Mostly Cloudy
8:00 AM 41.0 °F 37.4 °F 87% 30.18 in - Variable 2.3 mph - N/A   Clear
8:30 AM 42.8 °F 37.4 °F 81% 30.18 in - Variable 2.3 mph - N/A   Clear
9:00 AM 41 °F 41 °F 100% 30.21 in 6 mi WNW 2.2 mph - -   Scattered Clouds
9:00 AM 46.4 °F 39.2 °F 76% 30.18 in - Variable 2.3 mph - N/A   Clear
9:30 AM 50.0 °F 39.2 °F 66% 30.18 in - ENE 3.5 mph - N/A   Clear
10:00 AM 53 °F 33 °F 35% 30.22 in 6 mi NE 2.2 mph - -   Partly Cloudy
10:00 AM 51.8 °F 37.4 °F 58% 30.18 in - East 4.6 mph - N/A   Clear
10:30 AM 51.8 °F 37.4 °F 58% 30.18 in - ENE 8.1 mph - N/A   Clear
11:00 AM 53 °F 30 °F 29% 30.21 in 6 mi NE 6.7 mph - -   Scattered Clouds
11:00 AM 55.4 °F 39.2 °F 54% 30.15 in - NNE 9.2 mph - N/A   Clear
11:30 AM 55.4 °F 41.0 °F 58% 30.15 in - NE 10.4 mph - N/A   Clear
12:00 PM 57.2 °F 42.8 °F 59% 30.15 in - ENE 5.8 mph - N/A   Clear
12:30 PM 60.8 °F 42.8 °F 52% 30.15 in 6.2 mi NE 11.5 mph - N/A   Scattered Clouds
1:00 PM 62 °F 35 °F 25% 30.17 in 6 mi NE 8.9 mph - -   Partly Cloudy
1:00 PM 62.6 °F 41.0 °F 45% 30.12 in 6.2 mi ENE 16.1 mph - N/A   Scattered Clouds
1:30 PM 59.0 °F 37.4 °F 45% 30.12 in - NE 13.8 mph - N/A   Clear
2:00 PM 59 °F 30 °F 21% 30.16 in 6 mi ENE 8.9 mph - -   Mostly Cloudy
2:00 PM 62.6 °F 35.6 °F 37% 30.12 in - ENE 17.3 mph - N/A   Clear
2:30 PM 60.8 °F 33.8 °F 36% 30.09 in - NE 15.0 mph 26.5 mph N/A   Clear
3:00 PM 60 °F 29 °F 19% 30.14 in 6 mi ENE 11.2 mph - -   Mostly Cloudy
3:00 PM 60.8 °F 35.6 °F 39% 30.09 in - ENE 16.1 mph - N/A   Clear
3:30 PM 60.8 °F 35.6 °F 39% 30.09 in - ENE 13.8 mph - N/A   Clear
4:00 PM 59 °F 29 °F 20% 30.13 in 6 mi ENE 11.2 mph - -   Mostly Cloudy
4:00 PM 60.8 °F 37.4 °F 42% 30.09 in - NE 13.8 mph - N/A   Clear
4:30 PM 59.0 °F 35.6 °F 42% 30.06 in - NE 12.7 mph - N/A   Clear
5:00 PM 58 °F 30 °F 22% 30.11 in 6 mi NE 6.7 mph - -   Overcast
5:00 PM 59.0 °F 39.2 °F 48% 30.06 in - NNE 11.5 mph - N/A   Clear
5:30 PM 57.2 °F 41.0 °F 55% 30.06 in - NNE 10.4 mph - N/A   Clear
6:00 PM 57 °F 31 °F 26% 30.11 in 6 mi NE 6.7 mph - -   Mostly Cloudy
6:00 PM 57.2 °F 39.2 °F 51% 30.06 in - NNE 8.1 mph - N/A   Clear
6:30 PM 57.2 °F 39.2 °F 51% 30.04 in - NNE 6.9 mph - N/A   Clear
7:00 PM 56 °F 32 °F 27% 30.08 in 6 mi NNE 6.7 mph - -   Mostly Cloudy
7:00 PM 57.2 °F 39.2 °F 51% 30.04 in - NNE 8.1 mph - N/A   Clear
7:30 PM 57.2 °F 39.2 °F 51% 30.04 in - NNE 8.1 mph - N/A   Clear
8:00 PM 55 °F 31 °F 28% 30.07 in 6 mi NE 4.5 mph - -   Mostly Cloudy
8:00 PM 55.4 °F 39.2 °F 54% 30.04 in - NNE 5.8 mph - N/A   Clear
8:30 PM 55.4 °F 41.0 °F 58% 30.04 in - NNE 5.8 mph - N/A   Clear
9:00 PM 54 °F 32 °F 31% 30.07 in 6 mi NE 4.5 mph - -   Partly Cloudy
9:00 PM 55.4 °F 41.0 °F 58% 30.04 in - NNE 4.6 mph - N/A   Clear
9:30 PM 55.4 °F 41.0 °F 58% 30.04 in - NNE 4.6 mph - N/A   Clear
10:00 PM 52 °F 33 °F 36% 30.08 in 6 mi NNE 2.2 mph - -   Mostly Cloudy
10:00 PM 53.6 °F 41.0 °F 62% 30.04 in - North 4.6 mph - N/A   Clear
10:30 PM 53.6 °F 41.0 °F 62% 30.04 in - North 3.5 mph - N/A   Clear
11:00 PM 50 °F 36 °F 47% 30.07 in 6 mi North 2.2 mph - -   Mostly Cloudy
11:00 PM 53.6 °F 42.8 °F 67% 30.04 in - North 3.5 mph - N/A   Clear
11:30 PM 53.6 °F 41.0 °F 62% 30.04 in - Variable 2.3 mph - N/A   Clear